Location: Ottawa
(45.4170°N, 75.7000°W)
Time: 07:28:24
(UTC-05:00)

ISS - Pass Details

Date: 18 February 2026
Orbit: 416 x 427 km, 51.6° (Epoch: 6 March)

Event Time Altitude Azimuth Distance (km) Brightness Sun altitude
Exits shadow 05:06:33 67° 14° (NNE) 456 -3.6 -20.5°
Drops below altitude 10° 05:09:38 10° 59° (ENE) 1,495 -0.1 -19.9°
Sets 05:11:45 0° 61° (ENE) 2,359 1.2 -19.6°
